AI4ZL Weather Reports


time (UTC)temp
C
wind
direction
speed
KPH
gust
KPH
rain 1hr
cm
rain 24hr
cm
rain mn
cm
humidity
%
barometer
mb
20260901030245 23 0.0 0.0 0.00 0.00 0.00 98 1019.2
20260901025241 24 0.0 0.0 0.00 0.00 0.00 98 1019.1
20260901024236 24 0.0 0.0 0.00 0.00 0.00 98 1018.9
20260901023231 24 314 0.0 1.6 0.00 0.00 0.00 97 1018.7
20260901022246 25 0.0 0.0 0.00 0.00 0.00 97 1018.8
20260901021240 25 0.0 0.0 0.00 0.00 0.00 96 1018.8
20260901020234 25 308 0.0 1.6 0.00 0.00 0.00 95 1018.7
20260901015250 25 300 0.0 1.6 0.00 0.00 0.00 94 1018.7
20260901014245 25 325 0.0 1.6 0.00 0.00 0.00 93 1018.5
20260901013300 25 323 0.0 3.2 0.00 0.00 0.00 93 1018.5
20260901012235 25 307 0.0 1.6 0.00 0.00 0.00 93 1018.3
20260901011250 26 310 0.0 1.6 0.00 0.00 0.00 93 1018.1
20260901010305 26 306 1.6 1.6 0.00 0.00 0.00 90 1018.0
20260901005240 27 316 0.0 1.6 0.00 0.00 0.00 87 1017.9
20260901004234 27 0.0 0.0 0.00 0.00 0.00 84 1017.8
20260901003249 28 335 0.0 1.6 0.00 0.00 0.00 82 1017.8
20260901002305 30 0.0 0.0 0.00 0.00 0.00 79 1017.7
20260901001239 31 0.0 0.0 0.00 0.00 0.00 75 1017.6
20260901000233 31 0.0 0.0 0.00 0.00 0.00 73 1017.6
20260831235248 32 1 0.0 1.6 0.00 0.00 0.00 68 1017.6
20260831234244 33 11 0.0 1.6 0.00 0.00 0.00 64 1017.7
20260831233238 33 0.0 0.0 0.00 0.00 0.00 63 1017.9
20260831232232 33 329 0.0 1.6 0.00 0.00 0.00 62 1018.0
20260831231246 33 53 1.6 3.2 0.00 0.00 0.00 62 1017.9
20260831230241 33 73 1.6 3.2 0.00 0.00 0.00 61 1017.9
20260831225236 33 180 1.6 4.8 0.00 0.00 0.00 59 1018.1
20260831224250 33 138 3.2 6.4 0.00 0.00 0.00 60 1018.2
20260831223244 34 136 1.6 4.8 0.00 0.00 0.00 60 1018.1
20260831222239 34 189 1.6 3.2 0.00 0.00 0.00 60 1018.3
20260831221234 34 210 3.2 6.4 0.00 0.00 0.00 58 1018.5
20260831220249 34 214 3.2 9.7 0.00 0.00 0.00 57 1018.6
20260831215245 35 250 1.6 4.8 0.00 0.00 0.00 56 1018.8
20260831214238 35 262 3.2 6.4 0.00 0.00 0.00 56 1018.7
20260831213232 34 147 1.6 6.4 0.00 0.00 0.00 58 1018.7
20260831212307 35 127 3.2 6.4 0.00 0.00 0.00 60 1018.8
20260831211242 35 131 1.6 3.2 0.00 0.00 0.00 59 1018.8
20260831210236 35 159 3.2 6.4 0.00 0.00 0.00 57 1018.8
20260831205232 35 251 3.2 6.4 0.00 0.00 0.00 55 1018.9
20260831204247 35 265 3.2 9.7 0.00 0.00 0.00 54 1018.8
20260831203242 33 244 1.6 3.2 0.00 0.00 0.00 59 1018.9
20260831202238 34 231 1.6 4.8 0.00 0.00 0.00 58 1018.9
20260831201233 34 265 1.6 4.8 0.00 0.00 0.00 58 1019.2
20260831200246 35 199 3.2 6.4 0.00 0.00 0.00 59 1019.4
20260831195240 33 292 0.0 1.6 0.00 0.00 0.00 61 1019.4
20260831194255 35 232 3.2 6.4 0.00 0.00 0.00 58 1019.6
20260831193250 35 136 3.2 4.8 0.00 0.00 0.00 60 1019.6
20260831192245 34 271 1.6 6.4 0.00 0.00 0.00 58 1019.6
20260831191238 35 174 3.2 6.4 0.00 0.00 0.00 60 1019.7
20260831190233 35 179 3.2 6.4 0.00 0.00 0.00 60 1019.8
20260831185248 33 213 3.2 6.4 0.00 0.00 0.00 59 1019.8
20260831184243 34 259 4.8 12.9 0.00 0.00 0.00 60 1020.0
20260831183238 34 260 6.4 11.3 0.00 0.00 0.00 59 1020.0
20260831182234 33 179 3.2 6.4 0.00 0.00 0.00 60 1020.1
20260831181249 33 265 3.2 11.3 0.00 0.00 0.00 60 1020.1
20260831180242 33 260 4.8 9.7 0.00 0.00 0.00 61 1020.3
20260831175236 33 245 3.2 6.4 0.00 0.00 0.00 63 1020.4
20260831174231 33 265 3.2 6.4 0.00 0.00 0.00 63 1020.7
20260831173245 33 252 4.8 11.3 0.00 0.00 0.00 64 1020.6
20260831172240 33 256 3.2 9.7 0.00 0.00 0.00 62 1020.8
20260831171254 33 254 4.8 11.3 0.00 0.00 0.00 65 1020.8
20260831170309 32 211 3.2 6.4 0.00 0.00 0.00 66 1021.1
20260831165246 32 162 4.8 11.3 0.00 0.00 0.00 67 1021.1
20260831164242 32 196 4.8 9.7 0.00 0.00 0.00 67 1021.2
20260831163238 32 252 4.8 9.7 0.00 0.00 0.00 67 1021.3
20260831162234 32 233 3.2 9.7 0.00 0.00 0.00 67 1021.2
20260831161249 32 241 1.6 4.8 0.00 0.00 0.00 69 1021.3
20260831160245 31 245 4.8 11.3 0.00 0.00 0.00 68 1021.4
20260831155241 31 249 6.4 16.1 0.00 0.00 0.00 68 1021.4
20260831154237 31 259 8.0 17.7 0.00 0.00 0.00 68 1021.5
20260831153233 31 240 4.8 11.3 0.00 0.00 0.00 72 1021.4
20260831152248 31 225 4.8 9.7 0.00 0.00 0.00 72 1021.3
20260831151243 31 175 3.2 4.8 0.00 0.00 0.00 73 1021.3
20260831150238 30 183 3.2 6.4 0.00 0.00 0.00 75 1021.2
20260831145233 30 260 6.4 11.3 0.00 0.00 0.00 74 1021.2
20260831144309 30 257 4.8 11.3 0.00 0.00 0.00 76 1021.0
20260831143306 29 248 3.2 6.4 0.00 0.00 0.00 77 1021.0
20260831142242 28 208 4.8 6.4 0.00 0.00 0.00 79 1020.9
20260831141238 28 236 3.2 9.7 0.00 0.00 0.00 80 1020.8
20260831140234 28 205 3.2 4.8 0.00 0.00 0.00 81 1020.7
20260831135231 27 201 3.2 6.4 0.00 0.00 0.00 82 1020.8
20260831134307 27 209 3.2 6.4 0.00 0.00 0.00 83 1020.7
20260831133243 27 207 1.6 4.8 0.00 0.00 0.00 85 1020.7
20260831132240 27 203 1.6 3.2 0.00 0.00 0.00 86 1020.4
20260831131255 26 197 1.6 3.2 0.00 0.00 0.00 88 1020.4
20260831130249 26 179 1.6 3.2 0.00 0.00 0.00 90 1020.6
20260831125245 25 225 1.6 4.8 0.00 0.00 0.00 94 1020.4
20260831124240 23 0.0 0.0 0.00 0.00 0.00 96 1020.3
20260831123235 23 203 0.0 3.2 0.00 0.00 0.00 98 1020.3
20260831122249 23 0.0 0.0 0.00 0.00 0.00 99 1020.2
20260831121245 22 0.0 0.0 0.00 0.00 0.00 99 1020.1
20260831120300 22 0.0 0.0 0.00 0.00 0.00 99 1020.1
20260831115235 22 0.0 0.0 0.00 0.00 0.00 99 1019.7
20260831114231 22 0.0 0.0 0.00 0.00 0.00 99 1019.6
20260831113245 22 0.0 0.0 0.00 0.00 0.00 99 1019.6
20260831112301 22 0.0 0.0 0.00 0.00 0.00 99 1019.4
20260831111236 22 0.0 0.0 0.00 0.00 0.00 99 1019.3
20260831110251 22 0.0 0.0 0.00 0.00 0.00 99 1019.5
20260831105247 22 0.0 0.0 0.00 0.00 0.00 99 1019.4
20260831104242 22 0.0 0.0 0.00 0.00 0.00 99 1019.4
20260831103238 21 0.0 0.0 0.00 0.00 0.00 99 1019.4
20260831102233 21 0.0 0.0 0.00 0.00 0.00 99 1019.2
20260831101308 21 0.0 0.0 0.00 0.00 0.00 99 1019.1
20260831100242 22 0.0 0.0 0.00 0.00 0.00 99 1019.0
20260831095238 22 0.0 0.0 0.00 0.00 0.00 99 1019.0
20260831094233 22 0.0 0.0 0.00 0.00 0.00 99 1019.1
20260831093246 22 0.0 0.0 0.00 0.00 0.00 99 1018.9
20260831092242 22 0.0 0.0 0.00 0.00 0.00 99 1018.9
20260831091237 22 0.0 0.0 0.00 0.00 0.00 99 1018.9
20260831090232 22 0.0 0.0 0.00 0.00 0.00 99 1018.8
20260831085247 22 0.0 0.0 0.00 0.00 0.00 99 1018.7
20260831084301 22 0.0 0.0 0.00 0.00 0.00 99 1018.6
20260831083237 22 0.0 0.0 0.00 0.00 0.00 99 1018.6
20260831082252 22 0.0 0.0 0.00 0.00 0.00 99 1018.3
20260831081248 22 0.0 0.0 0.00 0.00 0.00 99 1018.4
20260831080303 22 0.0 0.0 0.00 0.00 0.00 99 1018.5
20260831075258 23 0.0 0.0 0.00 0.00 0.00 99 1018.3
20260831074233 22 0.0 0.0 0.00 0.00 0.00 99 1018.3
20260831073248 22 0.0 0.0 0.00 0.00 0.00 99 1018.3
20260831072243 22 0.0 0.0 0.00 0.00 0.00 99 1018.4
20260831071257 22 0.0 0.0 0.00 0.00 0.00 99 1018.4
20260831070232 22 0.0 0.0 0.00 0.00 0.00 99 1018.5
20260831065247 22 0.0 0.0 0.00 0.00 0.00 99 1018.7
20260831064303 22 0.0 0.0 0.00 0.00 0.00 99 1018.8
20260831063258 22 0.0 0.0 0.00 0.00 0.00 99 1018.8
20260831062234 22 0.0 0.0 0.00 0.00 0.00 99 1018.8
20260831061309 22 0.0 0.0 0.00 0.00 0.00 99 1018.8
20260831060243 22 0.0 0.0 0.00 0.00 0.00 99 1018.9
20260831055240 22 0.0 0.0 0.00 0.00 0.00 99 1018.9
20260831054234 22 0.0 0.0 0.00 0.00 0.00 99 1018.9
20260831053250 22 0.0 0.0 0.00 0.00 0.00 99 1019.0
20260831052245 22 0.0 0.0 0.00 0.00 0.00 99 1018.6
20260831051301 22 0.0 0.0 0.00 0.00 0.00 99 1018.6
20260831050236 22 316 0.0 1.6 0.00 0.00 0.00 99 1018.6
20260831045231 22 0.0 0.0 0.00 0.00 0.00 99 1018.5
20260831044247 22 0.0 0.0 0.00 0.00 0.00 99 1018.8
20260831043242 22 0.0 0.0 0.00 0.00 0.00 99 1018.9
20260831042237 22 0.0 0.0 0.00 0.00 0.00 99 1018.8
20260831041233 23 0.0 0.0 0.00 0.00 0.00 99 1018.7
20260831040308 23 0.0 0.0 0.00 0.00 0.00 99 1018.8
20260831035243 23 0.0 0.0 0.00 0.00 0.00 99 1018.7
20260831034236 23 0.0 0.0 0.00 0.00 0.00 98 1018.7
20260831033231 23 0.0 0.0 0.00 0.00 0.00 98 1018.8
20260831032247 23 0.0 0.0 0.00 0.00 0.00 98 1018.7
20260831031243 23 0.0 0.0 0.00 0.00 0.00 98 1018.7